Weather History for Cape Girardeau, MO

Change the Weather History Date:

Sunday, October 6, 2013

  Actual Average Record
Temperature  
Mean Temperature 57 °F 61 °F  
Max Temperature 67 °F 74 °F 89 °F (2007)
Min Temperature 47 °F 48 °F 29 °F (1964)
Degree Days  
Heating Degree Days 8 6  
Month to date heating degree days 8 32  
Since 1 July heating degree days 19 81  
Cooling Degree Days 0 2  
Month to date cooling degree days 39 12  
Year to date cooling degree days 1432 1434  
Growing Degree Days 7 (Base 50)    
Moisture  
Dew Point 48 °F    
Average Humidity 69    
Maximum Humidity 93    
Minimum Humidity 44    
Precipitation  
Precipitation 0.02 in 0.13 in 1.06 in (1998)
Month to date precipitation 1.80 0.70  
Year to date precipitation 30.47 35.03  
Sea Level Pressure  
Sea Level Pressure 29.90 in    
Wind  
Wind Speed 7 mph (West)    
Max Wind Speed 18 mph    
Max Gust Speed 29 mph    
Visibility 10 miles    
Events Rain    
T = Trace of Precipitation, MM = Missing Value Source: NWS Daily Summary

Daily Weather History Graph

Daily Weather History Graph

Search for Another Location

Airport:

Trip Planner

Search our weather history database for the weather conditions in past years. The results will help you decide how hot, cold, wet, or windy it might be!

Date:

Astronomy

Oct. 06, 2013 Rise Set
Actual Time 6:58 AM CDT 6:33 PM CDT
Civil Twilight 6:32 AM CDT 6:59 PM CDT
Nautical Twilight 6:02 AM CDT 7:29 PM CDT
Astronomical Twilight 5:31 AM CDT 8:00 PM CDT
Moon 8:39 AM CDT (10/6) 7:36 PM CDT (10/6)
Length of Visible Light 12h 27m
Length of Day
11h 35m
Waxing Crescent, 3% of the Moon is Illuminated
Oct 6
Waxing Crescent
Oct 11
First Quarter
Oct 18
Full
Oct 26
Last Quarter
Nov 3
New

Hourly Weather History & Observations

Time (CDT) Temp. Dew Point Humidity Pressure Visibility Wind Dir Wind Speed Gust Speed Precip Events Conditions
12:41 AM 62.6 °F 59.0 °F 88% 29.88 in 10.0 mi West 8.1 mph - 0.01 in Rain Light Rain
12:53 AM 61.0 °F 57.9 °F 90% 29.88 in 5.0 mi WNW 10.4 mph - 0.04 in Rain Rain
1:51 AM 57.2 °F 50.0 °F 77% 29.91 in 8.0 mi NW 5.8 mph - 0.02 in Rain Light Rain
1:53 AM 57.0 °F 50.0 °F 77% 29.90 in 9.0 mi WNW 6.9 mph - 0.02 in Rain Light Rain
2:53 AM 57.0 °F 52.0 °F 83% 29.89 in 10.0 mi NNW 4.6 mph - 0.00 in   Overcast
3:53 AM 57.0 °F 53.1 °F 87% 29.91 in 10.0 mi Calm Calm - N/A   Overcast
4:53 AM 55.9 °F 53.1 °F 90% 29.90 in 10.0 mi West 4.6 mph - N/A   Overcast
5:53 AM 55.9 °F 53.1 °F 90% 29.91 in 10.0 mi WSW 3.5 mph - N/A   Overcast
6:53 AM 55.9 °F 53.1 °F 90% 29.91 in 10.0 mi SW 3.5 mph - N/A   Overcast
7:53 AM 55.9 °F 53.1 °F 90% 29.91 in 10.0 mi SSW 4.6 mph - N/A   Scattered Clouds
8:53 AM 55.9 °F 52.0 °F 87% 29.91 in 10.0 mi WSW 8.1 mph - N/A   Clear
9:53 AM 60.1 °F 52.0 °F 75% 29.90 in 10.0 mi SW 9.2 mph - N/A   Clear
10:53 AM 63.0 °F 46.0 °F 54% 29.89 in 10.0 mi WSW 11.5 mph 18.4 mph N/A   Clear
11:53 AM 63.0 °F 42.1 °F 46% 29.88 in 10.0 mi WSW 15.0 mph - N/A   Clear
12:53 PM 64.9 °F 43.0 °F 45% 29.87 in 10.0 mi WSW 11.5 mph 20.7 mph N/A   Clear
1:53 PM 66.0 °F 45.0 °F 47% 29.85 in 10.0 mi West 15.0 mph - N/A   Clear
2:53 PM 66.0 °F 46.0 °F 48% 29.84 in 10.0 mi West 9.2 mph - N/A   Clear
3:53 PM 64.9 °F 45.0 °F 48% 29.85 in 10.0 mi WNW 13.8 mph - N/A   Partly Cloudy
4:53 PM 64.0 °F 45.0 °F 50% 29.86 in 10.0 mi WNW 13.8 mph - N/A   Scattered Clouds
5:53 PM 61.0 °F 45.0 °F 56% 29.87 in 10.0 mi WNW 11.5 mph - N/A   Mostly Cloudy
6:53 PM 57.9 °F 43.0 °F 58% 29.91 in 10.0 mi NW 8.1 mph - N/A   Clear
7:53 PM 51.1 °F 44.1 °F 77% 29.93 in 10.0 mi Calm Calm - N/A   Clear
8:53 PM 48.9 °F 44.1 °F 83% 29.95 in 10.0 mi West 3.5 mph - N/A   Clear
9:53 PM 48.0 °F 44.1 °F 86% 29.96 in 10.0 mi West 5.8 mph - N/A   Clear
10:53 PM 48.0 °F 44.1 °F 86% 29.96 in 10.0 mi Calm Calm - N/A   Clear
11:53 PM 48.9 °F 43.0 °F 80% 29.96 in 10.0 mi Calm Calm - N/A   Mostly Cloudy